TELECOM 2B

Satellite information

Favourite Embed

Satellite Type and Status

PAYLOADIN ORBIT

Key statistics

Satellite TELECOM 2B at a glance.

Uptime

12198

Days in orbit

Revolutions

≈ 1.0

Per day

Orbit

OTHER

Other

Inclination

14.4

Latest

Satellite identification and parameters

Extended collection of information and parameters for TELECOM 2B.

Object identification

Identified? True

Debris? False

Object name: TELECOM 2B

International designator: 1992-021A

Object number (NORAD): 21939

Object ID (CCSDS): 21939

Country: FRANCE (FR)

Current information (Y/N): Y

RCS size: LARGE

Orbital parameters

Period: 1447.132 minutes

Inclination: 14.4439 deg

SMA: 42380.447 km

Apoapsis: 36072.39 km

Periapsis: 35932.234 km

RAAN: 5.8301 deg

Eccentricy: 0.00165355

Argument of periapsis: 115.0118 deg

Mean anomaly: 251.8843 deg

Mean motion: 0.9950719 rev/day

Mean motion (dot): -0.00000093 rev/day2

B* drag term: 0.0 1/REarth

Two-line elements (TLE)

Creation date: Sept. 6, 2025, 2:09 a.m.

Reference frame: TEME

Reference center: EARTH

Epoch: Sept. 5, 2025, 7:47 p.m. UTC

TLE line 0: 0 TELECOM 2B

TLE line 1: 1 21939U 92021A 25248.82488215 -.00000093 00000-0 00000-0 0 9990

TLE line 2: 2 21939 14.4439 5.8301 0016535 115.0118 251.8843 0.99507190114563

Live tracking on map

Real-time ground track for satellite TELECOM 2B.

In-orbit conjunctions

There are no conjunctions computed for TELECOM 2B, at the moment. Check back to stay up to date, as we update our databases every day.

Go to all conjunctions

Associated space launch

Télécom 2B and Inmarsat-2 F4 are French and International communications satellites operating in GEO.

TELECOM 2B was lifted into orbit during the mission ‘Ariane 44L | Télécom 2B & Inmarsat-2 F4’, on board a Ariane 44L space rocket.

The launch took place on April 15, 1992, 11:25 p.m. from Ariane Launch Area 2.

For more information about the launch, click the button.

Launch to space Ariane 44L | Télécom 2B & Inmarsat-2 F4
Ariane 44L | Télécom 2B & Inmarsat-2 F4

Agency: N/A

Status: Launch Successful

Launch date: April 15, 1992, 11:25 p.m. UTC

Rocket: Ariane 44L

Launch pad: Ariane Launch Area 2

Location: Guiana Space Centre, French Guiana

...

Latest news about this satellite

There are no fresh news available about this satellite. Check back as we update our databases every day.


Newsletter sign-up

Weekly statistics, charts and insights to help you stay on top of the space industry.